User: anonymous   Login
Location: ??????
(42.0089°N, 44.3281°E)
Time: 11:21:43
(UTC+00:00)
Language:

H-2A R/B - Orbit

View from above orbital plane
View from above orbital plane
View from above satellite
View from above satellite

Ground track
Ground track

The orbit data is extracted from the following two-line orbital elements,

1 28932U 06002B   22025.87035844  .00000802  00000-0  78201-4 0  9994
2 28932  98.3109  60.4910 0087272 198.5984 214.2469 14.92913896868761
Epoch (UTC): 25 January 2022 20:53:18
Eccentricity: 0.0087272
inclination: 98.3109°
perigee height: 528 km
apogee height: 649 km
right ascension of ascending node: 60.4910°
argument of perigee: 198.5984°
revolutions per day: 14.92913896
mean anomaly at epoch: 214.2469°
orbit number at epoch: 86876

The dashed part of the orbit path shows where the satellite is in the earth's shadow,  

DLR